Klamath Falls, OR

9:10 PM PDT on July 27, 2016 (GMT -0700)
Klamath Falls International

Weather History for KLMT - May, 2012

Change the Weather History Date:

Thursday, May 31, 2012

  Actual Average Record
Temperature  
Mean Temperature 64 °F 54 °F  
Max Temperature 84 °F 69 °F 92 °F (1986)
Min Temperature 43 °F 39 °F 28 °F (1984)
Degree Days  
Heating Degree Days 1 11  
Month to date heating degree days 412 438  
Since 1 July heating degree days 6555 6756  
Cooling Degree Days 0 0  
Month to date cooling degree days 1 1  
Year to date cooling degree days 1 1  
Growing Degree Days 13 (Base 50)    
Moisture  
Dew Point 44 °F    
Average Humidity 53    
Maximum Humidity 92    
Minimum Humidity 22    
Precipitation  
Precipitation 0.00 in 0.01 in 0.83 in (1993)
Month to date precipitation 0.41 1.38  
Year to date precipitation 4.94 7.79  
Sea Level Pressure  
Sea Level Pressure 30.08 in    
Wind  
Wind Speed 5 mph (NNW)    
Max Wind Speed 18 mph    
Max Gust Speed 24 mph    
Visibility 10 miles    
Events      
T = Trace of Precipitation, MM = Missing Value Source: NWS Daily Summary

Daily Weather History Graph

Daily Weather History Graph

Search for Another Location

Airport or City:

Trip Planner

Search our weather history database for the weather conditions in past years. The results will help you decide how hot, cold, wet, or windy it might be!

Date:

Astronomy

May. 31, 2012 Rise Set
Actual Time 5:33 AM PDT 8:36 PM PDT
Civil Twilight 4:59 AM PDT 9:09 PM PDT
Nautical Twilight 4:16 AM PDT 9:53 PM PDT
Astronomical Twilight 3:26 AM PDT 10:44 PM PDT
Moon 4:28 PM PDT (5/31) 2:39 AM PDT (5/31)
Length of Visible Light 16h 10m
Length of Day
15h 02m
Waxing Gibbous, 81% of the Moon is Illuminated
May 31
Waxing Gibbous
Jun 4
Full
Jun 11
Last Quarter
Jun 19
New
Jun 26
First Quarter

Hourly Weather History & Observations

Time (PDT) Temp. Dew Point Humidity Pressure Visibility Wind Dir Wind Speed Gust Speed Precip Events Conditions
12:53 AM 52.0 °F 44.1 °F 74% 30.14 in 10.0 mi East 3.5 mph - N/A   Clear
1:53 AM 51.1 °F 44.1 °F 77% 30.14 in 10.0 mi Calm Calm - N/A   Clear
2:53 AM 53.1 °F 43.0 °F 69% 30.14 in 10.0 mi Calm Calm - N/A   Clear
3:53 AM 46.9 °F 43.0 °F 86% 30.14 in 10.0 mi Calm Calm - N/A   Clear
4:53 AM 44.1 °F 41.0 °F 89% 30.14 in 10.0 mi Calm Calm - N/A   Clear
5:53 AM 45.0 °F 42.1 °F 90% 30.14 in 10.0 mi Calm Calm - N/A   Clear
6:00 AM 44.6 °F 41.0 °F 87% 30.23 in 10.0 mi Calm Calm - N/A   Partly Cloudy
6:53 AM 51.1 °F 45.0 °F 80% 30.14 in 10.0 mi Calm Calm - N/A   Partly Cloudy
7:53 AM 59.0 °F 48.0 °F 67% 30.14 in 10.0 mi NNW 4.6 mph - N/A   Partly Cloudy
8:53 AM 64.9 °F 48.9 °F 56% 30.13 in 10.0 mi North 3.5 mph - N/A   Partly Cloudy
9:53 AM 70.0 °F 48.0 °F 46% 30.12 in 10.0 mi Calm Calm - N/A   Partly Cloudy
10:53 AM 71.1 °F 46.9 °F 42% 30.12 in 10.0 mi Calm Calm - N/A   Partly Cloudy
11:53 AM 75.0 °F 46.9 °F 37% 30.09 in 10.0 mi Variable 3.5 mph - N/A   Partly Cloudy
12:53 PM 78.1 °F 43.0 °F 29% 30.08 in 10.0 mi East 4.6 mph - N/A   Partly Cloudy
1:53 PM 80.1 °F 39.9 °F 24% 30.05 in 10.0 mi SSW 5.8 mph - N/A   Scattered Clouds
2:53 PM 80.1 °F 42.1 °F 26% 30.02 in 10.0 mi SSE 6.9 mph - N/A   Scattered Clouds
3:53 PM 81.0 °F 43.0 °F 26% 30.01 in 10.0 mi SSW 5.8 mph - N/A   Scattered Clouds
4:53 PM 82.9 °F 39.9 °F 22% 30.00 in 10.0 mi NNW 16.1 mph 21.9 mph N/A   Scattered Clouds
5:53 PM 81.0 °F 42.1 °F 25% 30.00 in 10.0 mi NNW 12.7 mph - N/A   Scattered Clouds
6:53 PM 79.0 °F 41.0 °F 26% 29.98 in 10.0 mi NNW 15.0 mph - N/A   Scattered Clouds
7:53 PM 75.9 °F 41.0 °F 29% 29.97 in 10.0 mi NNW 11.5 mph - N/A   Scattered Clouds
8:53 PM 69.8 °F 42.8 °F 38% 30.09 in 10.0 mi NNW 10.4 mph - N/A   Scattered Clouds
9:53 PM 64.9 °F 46.9 °F 52% 29.98 in 10.0 mi NW 5.8 mph - N/A   Scattered Clouds
10:53 PM 62.6 °F 48.2 °F 59% 30.11 in 10.0 mi WNW 3.5 mph - N/A   Clear
11:53 PM 61.0 °F 48.9 °F 64% 29.98 in 10.0 mi Calm Calm - N/A   Clear